Date,TemperatureHighF,TemperatureAvgF,TemperatureLowF,DewpointHighF,DewpointAvgF,DewpointLowF,HumidityHigh,HumidityAvg,HumidityLow,PressureMaxIn,PressureMinIn,WindSpeedMaxMPH,WindSpeedAvgMPH,GustSpeedMaxMPH,PrecipitationSumIn
2010-7-1,84.3,69.0,68.3,61.3,61.0,58.8,78,76,74,30.26,30.14,17,0,0,0.00
2010-7-2,86.7,75.8,64.3,67.9,62.0,58.0,80,63,48,30.16,29.94,13,2,0,0.00
2010-7-3,89.4,79.0,68.7,74.4,67.3,58.6,86,68,59,29.96,29.78,13,2,0,0.00
2010-7-4,78.4,73.9,69.8,74.3,70.9,68.4,96,91,84,29.82,29.72,14,2,19,0.62
2010-7-5,77.8,72.7,69.3,75.3,71.0,68.2,97,95,88,29.81,29.74,9,1,10,0.45
2010-7-6,85.2,76.5,70.4,74.7,71.5,69.5,97,86,61,29.96,29.80,9,1,0,0.00
2010-7-7,83.5,75.7,71.3,74.7,71.5,66.3,97,87,65,30.04,29.95,15,1,0,0.08
2010-7-8,80.3,73.6,68.4,69.5,66.1,60.3,94,79,55,30.09,30.00,14,2,0,0.00
2010-7-9,86.0,74.8,63.1,66.0,62.8,54.9,94,70,38,30.09,29.99,10,1,0,0.00
2010-7-10,86.9,75.8,62.5,66.8,63.1,58.7,96,68,39,30.02,29.83,13,1,0,0.00
2010-7-11,82.9,73.3,67.6,69.8,66.9,64.4,94,81,59,29.85,29.68,13,1,0,0.03
2010-7-12,81.2,71.6,66.8,73.3,68.1,65.3,96,89,70,29.79,29.70,18,0,0,0.41
2010-7-13,88.6,79.3,65.9,76.4,71.8,64.9,97,79,61,29.81,29.72,12,1,0,0.00
2010-7-14,95.5,84.8,72.6,82.9,76.9,69.3,93,78,62,29.89,29.68,23,3,0,0.10
2010-7-15,85.5,76.7,67.6,71.7,66.4,59.8,94,73,45,30.02,29.84,12,1,0,0.02
2010-7-16,90.0,77.1,64.1,73.8,67.5,62.6,96,75,46,30.02,29.86,11,1,0,0.00
2010-7-17,94.9,83.5,70.2,77.7,73.3,68.7,96,74,49,29.94,29.77,12,1,0,0.00
2010-7-18,87.0,80.1,69.7,76.5,71.3,66.4,95,76,55,29.91,29.67,21,2,0,2.50
2010-7-19,80.7,71.3,66.1,72.8,68.2,64.6,96,90,73,30.01,29.78,12,1,0,0.81
2010-7-20,84.5,75.8,70.0,73.7,70.9,67.9,97,85,66,29.97,29.78,11,1,0,0.10
2010-7-21,86.0,77.7,69.2,75.2,72.1,68.3,97,84,64,30.05,29.91,6,1,0,0.00
2010-7-22,92.5,84.2,76.4,78.2,75.6,70.2,91,76,58,29.91,29.67,21,3,0,0.00
2010-7-23,88.8,82.4,77.1,80.0,76.9,74.8,95,84,72,29.82,29.69,22,2,0,0.42
2010-7-24,80.5,76.2,68.8,73.1,69.3,66.7,93,80,72,30.02,29.80,11,1,0,0.00
2010-7-25,85.9,73.5,64.2,69.8,65.8,62.2,96,79,48,30.10,30.02,7,0,0,0.00
2010-7-26,87.9,76.5,65.1,74.5,69.4,63.8,97,80,59,30.07,29.92,12,1,0,0.00
2010-7-27,93.5,82.6,72.0,79.2,74.6,70.2,94,78,58,29.95,29.81,13,1,0,0.00
2010-7-28,86.3,79.8,69.9,76.1,71.8,63.2,91,77,59,30.08,29.85,13,2,0,0.00
2010-7-29,84.0,73.2,62.2,69.5,64.8,60.7,96,77,53,30.13,29.98,7,0,0,0.00
2010-7-30,79.7,73.3,69.0,74.8,69.3,65.1,96,87,74,29.98,29.79,13,1,0,0.94
2010-7-31,87.1,76.9,69.6,73.5,70.5,68.4,98,83,57,29.89,29.81,9,1,0,0.00